15min,AgWx,beryljct,423,28NOV2018:00:00:00,33.2,12.94,31.2,30.2,30.5,31.7,28.8,52,59,49,0.296,14.9,16.5,14.2,6.511,6.5,185,28,8.2,0.00013,0.00016,36.1,37.6,21,0,0,35.5,8.45,0.00,0.00
15min,AgWx,beryljct,423,28NOV2018:00:15:00,32.8,12.94,30.3,28.7,30.0,30.9,28.7,52,54,49,0.289,14.3,14.9,13.6,5.7,6.4,177,13,7.7,0.00012,0.00016,36.0,37.6,21,0,0,35.6,8.45,0.00,0.00
15min,AgWx,beryljct,423,28NOV2018:00:30:00,32.1,12.92,29.6,28.8,29.1,31.5,27.9,54,58,48,0.296,14.6,15.3,13.8,2.477,3.5,189,38,5.9,0.00002,0.00005,35.9,37.6,21,0,0,35.6,8.45,0.00,0.00
15min,AgWx,beryljct,423,28NOV2018:00:45:00,31.9,12.93,35.1,34.6,33.9,36.6,28.9,45,55,39,0.293,14.6,15.3,14.1,2.806,1.4,336,62,3.4,-0.00010,-0.00012,35.8,37.6,21,0,0,35.7,8.45,0.00,0.00
15min,AgWx,beryljct,423,28NOV2018:01:00:00,32.2,12.92,35.6,33.1,35.3,36.9,33.1,42,45,38,0.284,14.2,14.9,13.6,4.253,2.6,183,30,4.4,0.00001,0.00003,35.8,37.6,21,0,0,35.7,8.45,0.00,0.00
15min,AgWx,beryljct,423,28NOV2018:01:15:00,32.4,12.92,31.8,33.8,31.2,33.8,29.9,51,56,45,0.304,15.2,16.4,13.8,2.039,2.7,110,24,5.1,-0.00001,0.00001,35.7,37.6,21,0,0,35.5,8.45,0.00,0.00
15min,AgWx,beryljct,423,28NOV2018:01:30:00,33.0,12.92,34.8,34.6,34.1,34.6,33.5,47,51,45,0.314,16.1,17.5,15.2,0,0.9,206,16,3.1,-0.00015,-0.00020,35.7,37.6,21,0,0,35.7,8.45,0.00,0.00
15min,AgWx,beryljct,423,28NOV2018:01:45:00,33.7,12.91,35.7,34.9,35.2,36.0,34.3,46,51,43,0.316,16.6,18.1,15.5,3.047,1.9,135,33,5.3,-0.00007,-0.00007,35.6,37.6,21,0,0,35.8,8.45,0.00,0.00
15min,AgWx,beryljct,423,28NOV2018:02:00:00,34.2,12.9,33.9,34.3,33.5,34.9,32.7,52,56,46,0.320,17.8,19.1,16.0,2.126,1.0,105,48,2.9,-0.00014,-0.00019,35.5,37.6,21,0,0,35.5,8.45,0.00,0.00
15min,AgWx,beryljct,423,28NOV2018:02:15:00,34.6,12.9,34.9,34.8,34.4,34.9,33.9,46,48,44,0.302,15.5,16.6,15.1,0.789,0.6,82,0.8,2.1,-0.00020,-0.00029,35.5,37.6,21,0,0,35.6,8.45,0.00,0.00
15min,AgWx,beryljct,423,28NOV2018:02:30:00,34.7,12.9,34.8,34.5,34.4,34.7,33.8,47,51,44,0.331,16.1,17.5,15.1,2.828,2.1,115,48,3.5,-0.00005,-0.00004,35.4,37.5,21,0,0,35.5,8.45,0.00,0.00
15min,AgWx,beryljct,423,28NOV2018:02:45:00,35.1,12.9,39.0,40.6,37.8,40.6,34.4,42,49,35,0.297,16.4,17.6,14.8,2.477,4.4,206,11,6.7,0.00013,0.00018,35.4,37.5,21,0,0,37.6,8.45,0.00,0.00
15min,AgWx,beryljct,423,28NOV2018:03:00:00,36.4,12.89,41.5,39.4,41.2,42.0,39.4,34,39,33,0.319,15.3,16.5,14.4,1.315,4.1,231,20,6.4,0.00015,0.00022,35.3,37.5,21,0,0,40.8,8.45,0.00,0.00
15min,AgWx,beryljct,423,28NOV2018:03:15:00,37.3,12.88,38.9,42.3,38.3,42.3,36.5,41,46,33,0.306,16.6,17.6,15.5,5.875,3.3,317,45,8.8,0.00006,0.00010,35.3,37.5,21,0,0,38.9,8.45,0.00,0.00
15min,AgWx,beryljct,423,28NOV2018:03:30:00,38.2,12.89,41.1,40.3,40.8,43.0,38.9,36,40,32,0.294,15.7,17.1,14.4,3.069,2.6,288,39,6.2,0.00003,0.00007,35.3,37.5,21,0,0,41.0,8.45,0.00,0.00
15min,AgWx,beryljct,423,28NOV2018:03:45:00,38.8,12.87,41.1,40.7,40.6,41.2,39.7,34,35,33,0.287,14.3,14.7,14.0,4.056,3.1,336,9.8,4.1,0.00007,0.00013,35.3,37.5,21,0,0,40.8,8.45,0.00,0.00
15min,AgWx,beryljct,423,28NOV2018:04:00:00,39.3,12.88,40.9,40.8,40.5,40.8,39.9,35,36,33,0.311,14.7,15.9,13.9,0.745,2.4,335,23,4.3,0.00001,0.00005,35.2,37.4,21,0,0,41.0,8.45,0.00,0.00
15min,AgWx,beryljct,423,28NOV2018:04:15:00,39.9,12.87,43.0,42.3,42.5,43.6,40.6,34,37,31,0.313,15.9,16.5,15.1,0.965,2.6,196,34,6.2,0.00003,0.00008,35.2,37.4,21,0,0,42.1,8.45,0.00,0.00
15min,AgWx,beryljct,423,28NOV2018:04:30:00,40.6,12.87,43.6,43.9,43.1,44.0,42.1,33,35,31,0.307,15.9,16.2,15.4,6.796,6.9,217,11,10.6,0.00032,0.00042,35.2,37.4,21,0,0,43.2,8.45,0.00,0.00
15min,AgWx,beryljct,423,28NOV2018:04:45:00,41.3,12.87,41.7,39.2,41.9,44.1,39.2,35,39,31,0.306,15.8,16.5,15.2,4.845,4.1,293,43,7.9,0.00015,0.00023,35.1,37.4,21,0,0,42.3,8.44,0.00,0.00
15min,AgWx,beryljct,423,28NOV2018:05:00:00,40.6,12.85,38.9,38.9,38.6,39.2,37.7,39,42,38,0.306,15.9,16.8,15.5,5.678,3.5,286,45,6.1,0.00009,0.00014,35.1,37.4,21,0,0,38.6,8.45,0.00,0.00
15min,AgWx,beryljct,423,28NOV2018:05:15:00,39.9,12.86,40.2,40.9,39.6,40.9,38.1,37,40,35,0.321,15.6,16.6,14.7,4.889,3.8,221,30,6.2,0.00011,0.00017,35.1,37.4,21,0,0,39.3,8.45,0.00,0.00
15min,AgWx,beryljct,423,28NOV2018:05:30:00,39.7,12.85,40.6,40.8,40.2,40.9,39.0,39,41,36,0.318,17.0,18.0,16.1,4.911,3.9,203,23,5.4,0.00012,0.00018,35.1,37.4,21,0,0,40.5,8.45,0.00,0.00
15min,AgWx,beryljct,423,28NOV2018:05:45:00,39.8,12.84,42.2,43.2,41.5,43.3,40.3,36,38,33,0.314,16.4,16.9,15.6,12.3,7.0,211,5.5,15.3,0.00029,0.00038,35.1,37.3,21,0,0,41.1,8.45,0.00,0.00
15min,AgWx,beryljct,423,28NOV2018:06:00:00,41.0,12.85,44.1,44.0,43.7,44.2,43.2,32,33,32,0.313,16.1,16.5,15.9,11.66,12.3,199,6.4,15.0,0.00050,0.00059,35.1,37.3,21,0,0,44.0,8.45,0.00,0.00
15min,AgWx,beryljct,423,28NOV2018:06:15:00,42.1,12.85,43.8,42.6,43.6,44.3,42.6,33,35,32,0.322,16.4,16.8,15.9,6.774,9.9,193,15,15.3,0.00044,0.00054,35.1,37.3,21,0,0,44.0,8.44,0.00,0.00
15min,AgWx,beryljct,423,28NOV2018:06:30:00,41.7,12.85,40.7,40.0,40.7,42.5,39.9,37,38,35,0.316,16.6,17.2,16.1,5.919,7.8,170,19,11.4,0.00031,0.00039,35.1,37.3,21,0,0,40.0,8.45,0.00,0.00
15min,AgWx,beryljct,423,28NOV2018:06:45:00,40.3,12.84,39.4,39.5,39.1,40.3,37.5,39,42,37,0.314,16.3,16.7,16.0,0,2.8,127,83,6.2,0.00034,0.00059,35.1,37.3,21,0,0,36.9,8.45,0.00,0.00
15min,AgWx,beryljct,423,28NOV2018:07:00:00,38.7,12.82,38.7,36.6,38.6,40.6,36.3,40,45,36,0.320,16.2,16.8,15.5,1.206,1.8,131,23,4.9,0.00022,0.00038,35.1,37.3,21,0,0,35.9,8.45,0.00,0.00
15min,AgWx,beryljct,423,28NOV2018:07:15:00,37.2,12.81,36.7,36.4,36.3,37.5,34.7,44,46,42,0.315,16.4,16.7,16.0,2.938,2.3,58,43,3.9,0.00024,0.00042,35.1,37.3,21,0,0,35.8,8.45,0.00,0.00
15min,AgWx,beryljct,423,28NOV2018:07:30:00,36.0,12.81,38.2,36.3,37.7,38.7,36.3,41,43,39,0.308,16.0,16.2,15.2,4.275,2.3,8.9,37,4.4,0.00027,0.00046,35.0,37.3,21,3,0,35.7,8.45,0.00,0.00
15min,AgWx,beryljct,423,28NOV2018:07:45:00,35.1,12.89,37.9,36.7,37.4,38.4,36.1,41,43,39,0.311,15.8,16.1,15.4,3.573,1.4,276,0.1,4.4,0.00022,0.00036,35.0,37.2,21,12,0,35.6,8.45,0.00,0.00
15min,AgWx,beryljct,423,28NOV2018:08:00:00,34.9,13.09,35.5,31.9,35.7,39.6,31.4,45,54,38,0.316,16.1,16.8,15.4,5.064,4.3,301,13,5.8,0.00057,0.00088,35.0,37.2,21,41,0,37.5,8.45,0.00,0.00
15min,AgWx,beryljct,423,28NOV2018:08:15:00,34.9,13.55,34.4,33.6,33.8,35.5,31.9,49,52,45,0.331,16.5,17.3,16.0,4.253,4.5,315,13,6.0,0.00064,0.00093,35.0,37.2,21,97,0,38.5,8.45,0.00,0.00
15min,AgWx,beryljct,423,28NOV2018:08:30:00,35.8,14.4,35.0,35.7,34.4,35.7,33.6,50,52,49,0.348,17.9,18.9,17.3,2.762,2.9,346,8.6,4.3,0.00065,0.00086,34.9,37.2,21,135,0,41.4,8.45,0.00,0.00
15min,AgWx,beryljct,423,28NOV2018:08:45:00,37.7,14.7,38.5,39.3,37.8,39.3,35.8,46,49,44,0.359,18.9,19.6,18.3,1.25,3.0,319,14,4.6,0.00085,0.00112,34.9,37.2,21,174,0,46.4,8.44,0.00,0.00
15min,AgWx,beryljct,423,28NOV2018:09:00:00,40.3,14.6,41.0,41.1,40.6,41.4,39.3,43,46,41,0.379,19.8,22.1,18.8,0.46,0.8,350,39,2.0,0.00094,0.00106,34.9,37.2,21,230,0,53.3,8.44,0.00,0.00
15min,AgWx,beryljct,423,28NOV2018:09:15:00,43.2,14.57,41.8,41.5,41.5,42.6,41.1,43,45,41,0.376,20.6,22.1,19.9,6.927,3.1,80,31,8.4,0.00128,0.00160,34.9,37.2,21,272,0,56.2,8.44,0.00,0.00
15min,AgWx,beryljct,423,28NOV2018:09:30:00,44.8,14.54,43.1,43.5,42.6,43.6,41.3,40,44,38,0.363,20.0,21.7,18.7,4.911,5.0,97,9.7,7.7,0.00149,0.00197,34.9,37.2,21,272,0,53.2,8.44,0.00,0.00
15min,AgWx,beryljct,423,28NOV2018:09:45:00,46.2,14.52,45.4,45.9,45.0,46.0,43.6,35,40,30,0.323,18.6,21.6,16.4,0,2.9,88,9.6,5.7,0.00173,0.00212,34.9,37.2,21,351,0,58.9,8.44,0.00,0.00
15min,AgWx,beryljct,423,28NOV2018:10:00:00,48.2,14.45,46.5,46.9,46.2,47.0,45.9,30,33,29,0.327,16.8,18.4,15.8,0.68,0.6,23,15,2.6,0.00160,0.00178,34.9,37.2,21,352,0,63.9,8.44,0.00,0.00
15min,AgWx,beryljct,423,28NOV2018:10:15:00,50.2,14.43,47.3,47.8,47.0,48.0,46.6,30,32,29,0.332,17.3,18.4,16.3,2.389,1.5,61,34,4.3,0.00153,0.00180,34.9,37.1,21,295,0,64.3,8.44,0.00,0.00
15min,AgWx,beryljct,423,28NOV2018:10:30:00,51.4,14.5,50.3,51.4,49.7,51.4,47.8,30,31,28,0.372,19.2,21.2,17.5,5.48,5.2,184,42,12.8,0.00250,0.00321,35.0,37.1,21,453,0,63.8,8.43,0.00,0.00
15min,AgWx,beryljct,423,28NOV2018:10:45:00,52.3,13.94,50.3,49.7,50.2,51.6,49.7,29,30,28,0.364,19.1,20.4,18.6,7.234,9.4,195,14,14.5,0.00231,0.00333,35.2,37.1,21,281,0,57.4,8.43,0.00,0.00
15min,AgWx,beryljct,423,28NOV2018:11:00:00,51.9,14.4,49.9,50.0,49.6,50.0,49.3,30,31,29,0.368,19.4,20.1,18.9,11.16,8.9,175,11,14.4,0.00211,0.00306,35.4,37.1,21,242,0,55.1,8.44,0.00,0.00
15min,AgWx,beryljct,423,28NOV2018:11:15:00,52.0,14.39,50.5,50.2,50.3,50.7,50.0,30,32,29,0.376,20.0,21.2,19.1,10.15,10.4,168,10,14.5,0.00252,0.00361,35.6,37.1,21,332,0,57.5,8.44,0.00,0.00
15min,AgWx,beryljct,423,28NOV2018:11:30:00,52.2,14.4,50.5,50.0,50.3,50.8,49.9,30,31,29,0.361,19.9,21.0,19.0,4.384,10.2,176,16,14.1,0.00241,0.00348,35.8,37.1,21,296,0,57.1,8.43,0.00,0.00
15min,AgWx,beryljct,423,28NOV2018:11:45:00,52.3,14.04,50.7,50.7,50.4,50.7,50.0,31,32,29,0.393,20.7,21.5,19.5,6.577,8.6,197,12,14.5,0.00230,0.00325,36.1,37.1,21,302,0,58.3,8.43,0.00,0.00
15min,AgWx,beryljct,423,28NOV2018:12:00:00,52.5,13.99,50.9,50.7,50.6,51.0,50.2,31,33,30,0.400,21.3,22.8,20.2,5.327,7.5,197,17,12.0,0.00237,0.00325,36.3,37.1,21,346,0,59.7,8.43,0.00,0.00
15min,AgWx,beryljct,423,28NOV2018:12:15:00,52.8,13.75,51.0,50.4,50.8,51.5,50.3,32,33,30,0.416,21.9,23.2,20.5,8.88,8.2,201,23,11.5,0.00228,0.00319,36.6,37.2,21,306,0,59.1,8.43,0.00,0.00
15min,AgWx,beryljct,423,28NOV2018:12:30:00,52.5,13.44,50.3,49.9,50.1,50.5,49.8,33,34,33,0.407,22.2,22.9,21.7,7.738,7.8,210,11,10.9,0.00176,0.00260,36.8,37.2,21,166,0,55.6,8.43,0.00,0.00
15min,AgWx,beryljct,423,28NOV2018:12:45:00,52.1,13.34,50.1,49.8,49.9,50.0,49.7,34,35,33,0.408,22.4,23.1,22.0,16.68,10.5,208,10,19.8,0.00180,0.00278,37.0,37.2,21,122,0,53.5,8.43,0.00,0.00
15min,AgWx,beryljct,423,28NOV2018:13:00:00,51.5,13.34,49.9,49.5,49.7,49.8,49.5,34,35,33,0.413,22.3,22.9,21.9,11.09,12.5,213,9.2,17.0,0.00185,0.00295,37.3,37.3,21,100,0,52.3,8.43,0.00,0.00
15min,AgWx,beryljct,423,28NOV2018:13:15:00,51.1,13.3,49.4,49.0,49.2,49.5,49.0,34,35,34,0.409,22.3,22.8,22.0,9.54,10.0,213,8.9,12.3,0.00150,0.00243,37.6,37.3,21,66,0,51.3,8.43,0.00,0.00
15min,AgWx,beryljct,423,28NOV2018:13:30:00,50.5,13.27,49.0,48.5,48.8,49.1,48.4,35,36,34,0.398,22.2,22.7,21.5,9.62,8.2,231,11,12.2,0.00126,0.00205,37.7,37.4,21,51,0,50.5,8.43,0.00,0.00
15min,AgWx,beryljct,423,28NOV2018:13:45:00,50.1,13.25,48.6,48.2,48.3,48.5,48.1,35,35,34,0.389,21.7,22.3,21.1,6.862,8.8,232,7.3,11.7,0.00135,0.00218,37.9,37.5,21,61,0,50.2,8.43,0.00,0.00
15min,AgWx,beryljct,423,28NOV2018:14:00:00,49.7,13.23,48.4,48.0,48.1,48.3,47.9,35,35,34,0.400,21.5,22.0,20.9,7.782,7.6,235,8.9,10.3,0.00123,0.00197,38.1,37.5,21,59,0,50.1,8.43,0.00,0.00
15min,AgWx,beryljct,423,28NOV2018:14:15:00,49.3,13.25,48.1,47.9,47.8,48.0,47.7,36,37,35,0.407,21.9,22.4,21.3,8.81,7.1,250,10,10.4,0.00116,0.00185,38.2,37.6,21,58,0,49.6,8.43,0.00,0.00
15min,AgWx,beryljct,423,28NOV2018:14:30:00,48.7,13.29,46.9,45.7,46.9,48.0,45.7,43,49,36,0.506,25.4,27.9,22.3,12.54,9.4,276,12,19.8,0.00130,0.00204,38.3,37.7,21,92,0,48.6,8.44,0.00,0.00
15min,AgWx,beryljct,423,28NOV2018:14:45:00,48.1,13.21,46.0,45.1,45.7,45.9,45.1,47,49,44,0.495,26.4,27.5,25.4,13.11,9.4,263,21,17.2,0.00114,0.00181,38.5,37.8,21,74,0,48.2,8.44,0.00,0.00
15min,AgWx,beryljct,423,28NOV2018:15:00:00,47.3,13.17,45.0,43.5,44.9,45.2,43.5,48,57,46,0.544,26.6,29.2,25.4,10.19,8.4,263,16,15.6,0.00088,0.00147,38.5,37.9,21,27,0,46.0,8.44,0.00,0.00
15min,AgWx,beryljct,423,28NOV2018:15:15:00,45.2,13.15,41.6,40.6,41.6,43.4,40.6,62,67,56,0.579,29.5,30.7,28.3,6.555,7.1,298,22,13.7,0.00056,0.00092,38.6,37.9,21,23,79,39.2,8.45,0.01,0.00
15min,AgWx,beryljct,423,28NOV2018:15:30:00,43.4,13.14,40.7,40.4,40.4,40.8,39.9,69,72,64,0.602,30.9,31.7,29.6,5.174,4.6,278,48,8.8,0.00038,0.00058,38.7,38.0,21,34,20,39.1,8.45,0.00,0.00
15min,AgWx,beryljct,423,28NOV2018:15:45:00,42.3,13.12,39.9,39.0,39.7,40.4,39.0,74,76,71,0.609,31.9,32.6,31.3,8,8.1,174,12,11.4,0.00038,0.00064,38.8,38.1,21,23,77,38.7,8.46,0.01,0.00
15min,AgWx,beryljct,423,28NOV2018:16:00:00,41.5,13.12,39.1,38.6,38.8,39.1,38.6,80,83,75,0.656,33.1,33.8,31.8,6.379,7.5,178,10,10.4,0.00008,0.00025,38.8,38.2,21,27,0,38.6,8.46,0.00,0.00
15min,AgWx,beryljct,423,28NOV2018:16:15:00,41.1,13.09,39.1,38.9,38.7,38.9,38.6,82,83,80,0.644,33.8,34.1,33.3,5.853,6.2,191,9.8,9.1,-0.00012,-0.00000,38.9,38.2,21,20,0,38.9,8.46,0.00,0.00
15min,AgWx,beryljct,423,28NOV2018:16:30:00,40.8,13.08,39.3,39.0,38.9,39.0,38.8,81,82,80,0.652,33.5,33.7,33.3,5.437,4.6,244,15,6.4,0.00012,0.00015,38.9,38.3,21,11,29,39.2,8.46,0.00,0.00
15min,AgWx,beryljct,423,28NOV2018:16:45:00,40.6,13.07,39.5,39.1,39.1,39.4,38.9,80,82,79,0.660,33.6,34.0,33.2,5.196,3.9,240,18,5.5,0.00012,0.00015,38.9,38.4,21,13,100,39.0,8.47,0.01,0.01
15min,AgWx,beryljct,423,28NOV2018:17:00:00,40.4,13.06,39.3,38.7,38.9,39.1,38.7,82,83,81,0.660,34.0,34.2,33.7,7.519,6.5,224,11,8.4,0.00012,0.00015,38.9,38.4,21,6,100,38.7,8.48,0.01,0.01
15min,AgWx,beryljct,423,28NOV2018:17:15:00,40.2,13.05,39.3,38.7,38.9,39.0,38.7,81,83,80,0.653,33.5,33.9,33.2,11.29,8.7,206,13,11.3,0.00014,0.00016,39.0,38.5,21,3,100,38.4,8.49,0.01,0.00
15min,AgWx,beryljct,423,28NOV2018:17:30:00,40.0,13.04,38.9,38.5,38.5,38.7,38.3,84,85,82,0.660,33.9,34.3,33.5,9.16,7.7,194,6.6,11.0,0.00011,0.00013,39.0,38.5,21,1,69,38.3,8.49,0.00,0.00
15min,AgWx,beryljct,423,28NOV2018:17:45:00,39.9,13.03,38.7,38.1,38.4,38.7,38.1,83,84,82,0.657,33.7,33.9,33.5,10.72,10.7,189,7.1,14.2,0.00012,0.00014,39.0,38.6,21,0,6,38.2,8.49,0.00,0.00
15min,AgWx,beryljct,423,28NOV2018:18:00:00,39.7,13.02,38.4,37.7,38.0,38.2,37.7,85,86,84,0.656,33.8,34.0,33.6,12.89,10.9,178,8.4,13.4,0.00011,0.00013,38.9,38.6,21,0,0,37.9,8.49,0.00,0.00
15min,AgWx,beryljct,423,28NOV2018:18:15:00,39.5,13.01,37.8,37.3,37.5,37.7,37.3,87,87,86,0.659,33.9,34.0,33.7,13.42,10.7,175,8.8,13.6,0.00010,0.00011,38.9,38.7,21,0,0,37.7,8.49,0.00,0.00
15min,AgWx,beryljct,423,28NOV2018:18:30:00,39.4,12.99,37.8,37.3,37.4,37.5,37.2,87,88,86,0.661,33.9,34.0,33.7,8.7,10.0,166,6.7,14.9,0.00009,0.00011,38.9,38.7,21,0,0,38.2,8.50,0.00,0.00
15min,AgWx,beryljct,423,28NOV2018:18:45:00,39.2,13,37.8,37.5,37.4,37.5,37.3,88,88,87,0.671,34.1,34.3,33.9,12.14,9.3,173,7.2,12.5,0.00008,0.00010,38.9,38.7,21,0,0,38.3,8.49,0.00,0.00
15min,AgWx,beryljct,423,28NOV2018:19:00:00,39.4,12.99,38.8,38.8,38.2,38.8,37.5,86,88,83,0.667,34.4,34.6,34.2,17.69,12.5,181,6.4,18.2,0.00011,0.00012,38.8,38.8,21,0,0,39.3,8.50,0.00,0.00
15min,AgWx,beryljct,423,28NOV2018:19:15:00,39.7,12.99,39.1,38.5,38.8,39.0,38.5,83,84,82,0.664,34.1,34.2,33.9,8.64,10.9,188,7.1,18.6,0.00013,0.00015,38.8,38.8,21,0,0,39.5,8.50,0.00,0.00
15min,AgWx,beryljct,423,28NOV2018:19:30:00,39.9,12.96,39.2,38.9,38.8,39.1,38.3,84,85,84,0.675,34.4,34.7,34.1,5.656,8.3,192,6.4,11.5,0.00011,0.00013,38.8,38.8,21,0,0,39.6,8.50,0.00,0.00
15min,AgWx,beryljct,423,28NOV2018:19:45:00,40.0,12.96,39.3,39.3,38.9,39.3,38.6,84,85,83,0.677,34.6,34.9,34.4,6.862,6.0,187,36,10.6,0.00009,0.00012,38.8,38.8,21,0,0,39.6,8.50,0.00,0.00
15min,AgWx,beryljct,423,28NOV2018:20:00:00,40.0,12.96,37.8,36.5,37.8,39.3,36.5,86,88,83,0.642,33.9,34.6,33.2,7.125,9.4,310,15,15.1,0.00010,0.00012,38.7,38.9,21,0,0,38.7,8.50,0.00,0.00
15min,AgWx,beryljct,423,28NOV2018:20:15:00,39.5,12.94,36.8,36.6,36.4,36.6,36.1,88,89,87,0.652,33.2,33.7,32.9,6.094,5.4,307,31,8.2,0.00006,0.00008,38.7,38.9,21,0,0,37.2,8.50,0.00,0.00
15min,AgWx,beryljct,423,28NOV2018:20:30:00,39.0,12.94,37.3,36.9,36.8,37.0,36.6,88,89,87,0.648,33.6,33.8,33.5,1.469,2.5,279,28,7.4,0.00004,0.00006,38.7,38.9,21,0,0,37.1,8.50,0.00,0.00
15min,AgWx,beryljct,423,28NOV2018:20:45:00,38.5,12.94,36.4,36.0,36.1,37.0,35.6,88,90,86,0.648,33.0,33.6,32.4,0.46,2.7,124,18,6.2,0.00004,0.00006,38.6,38.9,21,0,0,36.4,8.50,0.00,0.00
15min,AgWx,beryljct,423,28NOV2018:21:00:00,38.2,12.92,37.5,37.5,36.9,37.5,36.1,88,90,86,0.657,33.7,34.3,33.1,3.091,3.6,185,18,5.7,0.00005,0.00007,38.6,38.9,21,0,0,37.1,8.50,0.00,0.00
15min,AgWx,beryljct,423,28NOV2018:21:15:00,38.5,12.93,39.3,39.9,38.5,40.2,37.3,85,88,81,0.686,34.5,35.6,33.6,9.27,6.2,215,11,11.6,0.00009,0.00011,38.6,39.0,21,0,0,39.3,8.50,0.00,0.00
15min,AgWx,beryljct,423,28NOV2018:21:30:00,39.5,12.93,40.7,40.1,40.3,40.5,40.0,82,82,81,0.689,35.1,35.3,35.0,9.01,9.9,208,6.6,13.7,0.00014,0.00017,38.5,39.0,21,0,0,41.1,8.50,0.00,0.00
15min,AgWx,beryljct,423,28NOV2018:21:45:00,40.1,12.91,40.2,39.6,39.9,40.2,39.6,83,83,82,0.684,35.0,35.2,34.8,6.204,7.8,211,7.3,12.4,0.00012,0.00015,38.5,39.0,21,0,0,40.3,8.50,0.00,0.00
15min,AgWx,beryljct,423,28NOV2018:22:00:00,40.2,12.91,39.6,38.6,39.4,39.7,38.6,83,84,83,0.659,34.6,34.9,33.9,4.275,5.0,262,28,7.9,0.00010,0.00012,38.4,39.0,21,0,0,39.7,8.50,0.00,0.00
15min,AgWx,beryljct,423,28NOV2018:22:15:00,39.8,12.91,37.5,36.8,37.4,38.5,36.7,86,88,83,0.651,33.7,34.1,33.3,0.767,4.4,295,22,7.4,0.00007,0.00009,38.4,39.0,21,0,0,37.8,8.50,0.00,0.00
15min,AgWx,beryljct,423,28NOV2018:22:30:00,39.0,12.9,37.3,37.0,36.8,37.0,36.6,88,89,88,0.655,33.6,33.8,33.3,2.105,2.4,347,31,4.3,0.00004,0.00006,38.4,39.0,21,0,0,36.5,8.50,0.00,0.00
15min,AgWx,beryljct,423,28NOV2018:22:45:00,38.7,12.89,37.6,37.5,37.1,37.6,36.6,88,89,86,0.661,33.7,34.3,33.2,2.411,2.6,56,33,3.5,0.00005,0.00006,38.3,39.0,21,0,0,38.1,8.50,0.00,0.00
15min,AgWx,beryljct,423,28NOV2018:23:00:00,38.6,12.89,38.7,38.2,38.2,38.9,37.4,85,88,83,0.648,34.1,34.8,33.5,2.916,3.3,138,23,4.5,0.00007,0.00009,38.3,39.0,21,0,0,38.2,8.50,0.00,0.00
15min,AgWx,beryljct,423,28NOV2018:23:15:00,38.4,12.87,36.5,35.7,36.4,38.1,35.6,88,90,83,0.630,33.1,33.6,32.7,2.411,3.1,231,37,3.5,0.00005,0.00007,38.3,39.0,21,0,0,37.2,8.49,0.00,0.00
15min,AgWx,beryljct,423,28NOV2018:23:30:00,38.2,12.88,36.3,36.3,35.8,36.3,35.3,90,91,89,0.657,33.2,33.9,32.6,3.508,3.2,322,13,5.1,0.00004,0.00005,38.2,39.0,21,0,0,37.3,8.50,0.00,0.00
15min,AgWx,bigpiney,439,28NOV2018:00:00:00,27.7,12.72,25.0,24.6,24.6,24.7,24.5,85,86,83,0.389,20.8,21.1,20.2,2.192,3.0,344,15,5.8,-0.00003,-0.00003,33.0,35.0,43,0,0,0.0,.,0.00,0.00
15min,AgWx,bigpiney,439,28NOV2018:00:15:00,27.5,12.71,24.9,24.3,24.5,24.7,24.3,86,87,85,0.383,20.9,21.1,20.6,2.346,2.6,333,16,3.8,-0.00004,-0.00004,33.0,35.0,43,0,0,0.0,.,0.00,0.00
15min,AgWx,bigpiney,439,28NOV2018:00:30:00,27.3,12.7,24.9,24.7,24.5,24.7,24.3,86,87,85,0.385,20.9,21.1,20.7,3.332,3.6,326,9.8,5.5,-0.00002,-0.00002,33.0,35.0,43,0,0,0.0,.,0.00,0.00
15min,AgWx,bigpiney,439,28NOV2018:00:45:00,27.3,12.69,25.1,24.6,24.7,24.8,24.6,85,86,84,0.379,20.8,21.0,20.5,3.595,4.0,330,11,6.3,-0.00001,-0.00001,33.0,35.0,43,0,0,0.0,.,0.00,0.00
15min,AgWx,bigpiney,439,28NOV2018:01:00:00,27.2,12.69,24.8,24.3,24.5,24.6,24.3,84,84,84,0.375,20.3,20.6,20.2,3.332,3.6,333,8.4,5.3,-0.00001,-0.00001,33.0,35.0,43,0,0,0.0,.,0.00,0.00
15min,AgWx,bigpiney,439,28NOV2018:01:15:00,27.2,12.67,25.0,24.8,24.6,24.9,24.3,85,86,84,0.389,20.6,21.1,20.2,2.126,2.0,317,48,4.5,-0.00005,-0.00005,33.0,35.0,43,0,0,0.0,.,0.00,0.00
15min,AgWx,bigpiney,439,28NOV2018:01:30:00,27.3,12.67,24.9,24.4,24.6,24.9,24.4,88,89,86,0.399,21.5,21.7,21.1,2.916,1.7,342,33,2.9,-0.00006,-0.00008,33.0,35.0,43,0,0,0.0,.,0.00,0.00
15min,AgWx,bigpiney,439,28NOV2018:01:45:00,27.3,12.67,24.8,24.5,24.4,24.5,24.3,90,90,89,0.405,21.8,22.1,21.6,2.828,3.3,2.0,19,5.0,-0.00004,-0.00004,33.0,35.0,43,0,0,0.0,.,0.00,0.00
15min,AgWx,bigpiney,439,28NOV2018:02:00:00,27.3,12.66,24.9,24.5,24.5,24.6,24.5,91,91,90,0.408,22.2,22.4,22.1,0,2.1,356,36,4.1,-0.00005,-0.00007,33.0,34.9,43,0,0,0.0,.,0.00,0.00
15min,AgWx,bigpiney,439,28NOV2018:02:15:00,27.4,12.64,25.1,24.6,24.6,24.8,24.5,91,92,91,0.413,22.5,22.7,22.2,0,0.6,58,65,2.5,-0.00009,-0.00013,33.0,35.0,43,0,0,0.0,.,0.00,0.00
15min,AgWx,bigpiney,439,28NOV2018:02:30:00,27.5,12.64,25.0,24.6,24.7,24.8,24.5,92,92,92,0.415,22.7,22.8,22.5,0,0.8,37,63,2.8,-0.00009,-0.00012,33.0,35.0,43,0,0,0.0,.,0.00,0.00
15min,AgWx,bigpiney,439,28NOV2018:02:45:00,27.3,12.63,24.4,23.9,24.1,24.5,23.7,93,94,92,0.412,22.4,22.6,22.1,1.074,0.6,152,46,1.9,-0.00009,-0.00013,33.0,35.0,43,0,0,0.0,.,0.00,0.00
15min,AgWx,bigpiney,439,28NOV2018:03:00:00,26.8,12.62,23.9,23.0,23.5,23.9,22.7,94,94,94,0.398,22.0,22.4,21.4,0,0.3,203,5.6,1.6,-0.00010,-0.00015,33.0,35.0,43,0,0,0.0,.,0.00,0.00
15min,AgWx,bigpiney,439,28NOV2018:03:15:00,26.3,12.62,23.0,22.4,22.5,23.2,22.0,94,95,94,0.386,21.1,22.0,20.5,1.337,1.5,211,73,4.8,-0.00007,-0.00009,33.0,35.1,43,0,0,0.0,.,0.00,0.00
15min,AgWx,bigpiney,439,28NOV2018:03:30:00,25.9,12.6,23.6,23.0,23.1,23.4,22.5,94,94,93,0.395,21.6,22.0,21.0,0.767,0.7,320,62,2.0,-0.00009,-0.00013,33.0,35.0,43,0,0,0.0,.,0.00,0.00
15min,AgWx,bigpiney,439,28NOV2018:03:45:00,25.6,12.61,22.8,22.3,22.4,23.0,21.9,93,94,92,0.383,20.7,21.5,19.9,1.228,0.7,172,6.1,3.1,-0.00008,-0.00012,33.0,35.0,43,0,0,0.0,.,0.00,0.00
15min,AgWx,bigpiney,439,28NOV2018:04:00:00,25.1,12.59,22.9,22.3,22.4,22.9,21.2,94,95,93,0.384,20.9,21.6,19.6,0,0.8,238,27,5.4,-0.00008,-0.00012,33.0,34.9,43,0,0,0.0,.,0.00,0.00
15min,AgWx,bigpiney,439,28NOV2018:04:15:00,24.4,12.59,21.5,20.2,21.2,23.0,19.4,93,95,90,0.349,19.6,21.7,16.9,2.959,2.3,290,38,4.5,-0.00005,-0.00006,33.0,35.0,43,0,0,0.0,.,0.00,0.00
15min,AgWx,bigpiney,439,28NOV2018:04:30:00,23.7,12.56,19.4,18.7,19.0,20.4,18.5,93,94,91,0.327,17.2,19.0,16.4,1.776,1.3,299,14,2.7,-0.00006,-0.00008,33.0,35.0,43,0,0,0.0,.,0.00,0.00
15min,AgWx,bigpiney,439,28NOV2018:04:45:00,23.1,12.58,19.4,18.6,18.9,19.2,18.4,93,94,92,0.325,17.2,17.7,16.5,0.548,1.2,288,26,2.8,-0.00007,-0.00009,33.0,35.1,43,0,0,0.0,.,0.00,0.00
15min,AgWx,bigpiney,439,28NOV2018:05:00:00,22.8,12.58,19.5,18.6,19.0,19.5,18.6,92,93,91,0.318,17.0,17.7,16.4,3.749,2.2,348,13,4.7,-0.00005,-0.00006,33.0,35.0,43,0,0,0.0,.,0.00,0.00
15min,AgWx,bigpiney,439,28NOV2018:05:15:00,22.6,12.57,19.1,18.9,18.6,19.0,18.4,91,92,91,0.324,16.5,16.9,16.1,1.863,2.5,342,12,3.9,-0.00004,-0.00005,33.0,35.0,44,0,0,0.0,.,0.00,0.00
15min,AgWx,bigpiney,439,28NOV2018:05:30:00,22.7,12.57,20.8,21.3,20.0,21.3,18.9,93,93,91,0.365,18.2,19.6,16.8,0.197,1.8,329,19,3.2,-0.00006,-0.00007,33.0,34.9,44,0,0,0.0,.,0.00,0.00
15min,AgWx,bigpiney,439,28NOV2018:05:45:00,23.0,12.57,22.3,22.2,21.7,22.2,21.3,93,94,93,0.381,20.1,20.6,19.6,0.811,0.6,320,12,2.2,-0.00009,-0.00013,33.0,35.0,44,0,0,0.0,.,0.00,0.00
15min,AgWx,bigpiney,439,28NOV2018:06:00:00,23.4,12.55,22.7,22.2,22.2,22.3,22.1,94,94,94,0.382,20.6,20.8,20.5,0,1.0,78,48,2.5,-0.00008,-0.00011,33.0,35.0,44,0,0,0.0,.,0.00,0.00
15min,AgWx,bigpiney,439,28NOV2018:06:15:00,23.8,12.55,22.7,22.2,22.2,22.3,22.0,94,94,93,0.381,20.6,20.8,20.4,0,0.8,83,19,2.3,-0.00008,-0.00012,33.0,35.0,44,0,0,0.0,.,0.00,0.00
15min,AgWx,bigpiney,439,28NOV2018:06:30:00,24.1,12.55,22.9,22.6,22.4,22.6,22.2,94,94,94,0.389,20.9,21.1,20.6,0,0.4,126,12,1.3,-0.00010,-0.00014,33.0,35.0,44,0,0,0.0,.,0.00,0.00
15min,AgWx,bigpiney,439,28NOV2018:06:45:00,24.4,12.56,23.3,22.9,22.8,23.0,22.6,94,94,94,0.392,21.2,21.4,21.0,0.767,0.4,68,51,1.7,-0.00010,-0.00014,33.0,35.0,44,0,0,0.0,.,0.00,0.00
15min,AgWx,bigpiney,439,28NOV2018:07:00:00,24.6,12.55,23.3,22.9,22.9,23.1,22.9,94,94,93,0.391,21.3,21.5,21.2,3.069,1.3,54,40,3.1,-0.00007,-0.00010,33.0,35.0,44,0,0,0.0,.,0.00,0.00
15min,AgWx,bigpiney,439,28NOV2018:07:15:00,24.8,12.55,22.8,22.4,22.5,22.9,22.4,93,93,93,0.382,20.8,21.2,20.6,1.951,1.5,149,20,3.5,-0.00007,-0.00009,33.0,34.9,44,0,0,0.0,.,0.00,0.00
15min,AgWx,bigpiney,439,28NOV2018:07:30:00,24.9,12.56,22.4,21.9,22.1,22.4,21.8,93,93,92,0.371,20.4,20.7,19.9,2.609,2.6,145,27,4.1,-0.00004,-0.00005,33.0,35.0,44,6,0,0.0,.,0.00,0.00
15min,AgWx,bigpiney,439,28NOV2018:07:45:00,24.9,12.57,21.8,21.4,21.5,21.8,21.3,92,93,92,0.364,19.7,19.9,19.5,0.877,1.8,96,29,3.1,-0.00026,-0.00027,33.0,35.0,44,11,0,0.0,.,0.00,0.00
15min,AgWx,bigpiney,439,28NOV2018:08:00:00,24.8,12.6,21.6,21.1,21.2,21.5,21.1,92,93,92,0.359,19.4,19.6,19.2,0.132,0.4,160,26,1.3,-0.00017,-0.00018,33.0,35.0,44,21,0,0.0,.,0.00,0.00
15min,AgWx,bigpiney,439,28NOV2018:08:15:00,24.7,12.67,21.4,21.1,21.0,21.2,20.9,92,93,92,0.360,19.1,19.4,19.0,0,0.5,69,45,1.6,-0.00008,-0.00009,33.0,34.9,44,44,0,0.0,.,0.00,0.00
15min,AgWx,bigpiney,439,28NOV2018:08:30:00,24.7,12.74,21.6,21.2,21.2,21.3,21.0,92,93,92,0.360,19.3,19.5,19.2,0.877,0.4,71,19,1.7,0.00004,0.00004,33.0,35.0,44,57,0,0.0,.,0.00,0.00